Ana Sayfa
METAR-TAF:

METAR-TAF

Havaalanları :

Nueces County Airport

Robstown, Teksas, Amerika Birleşik Devletleri

Enlem: 27-46-42N, Boylam: 097-41-25W, yükseklik: 24 m

Güncel hava durumu gözlemi

Rapor saat 06:55 UTC de 15 dakika önce yapıldı.
Rüzgar güneybatıdan 6 kt
Sıcaklık 12°C
Nem 50%
Basınç 1028 hPa
Görüş mesafesi: 16.1 km
Açık gökyüzü

METAR: KRBO 290655Z AUTO 22006KT 10SM CLR 12/02 A3036 RMK AO2 T01150015

Saat: 01:10 (07:10 UTC)


TAF: eksik

4.000'den fazla havaalanı için hava durumu gözlemleri ve tahminleri (METAR ve TAF raporları).

Kullanılabilir istasyonlar harita üzerinde sarı ve kırmızı noktalarla gösterilir.

İstasyonun adını görmek için fareyi noktanın üzerinde gezdirin.

Sonrasında hava gözlem ve tahminlerini görmek için tıklayın.

Haritayı değiştirmek için: yaklaştırmak için siyah artı işaretli yeşil düğmeye ve uzaklaştırmak için de eksi işaretli düğmeye hızla tıklayın; bitişik haritalar için yeşil okları kullanın.


METAR-TAF: